Date String (YYYY-MM-DD hh:mm:ss) UTC,Instrument flags,absolute air pressure of the measurement (hPa),sample flow rate (lpm),inlet stack bypass flow (lpm),air temperature of the measurement (°C),ambient temperature measured by the external sensor (°C),aerosol sample conditioner tube jacket temperature (°C),OPC LED temperature (°C),internal box temperature (°C),relative humidity of the measurement (%),span deviation,mass concentration of particles derived from Lorenz-Mie calculation of OPC scattering (μg/m³),mass concentration of particles derived from Lorenz-Mie calculation of OPC scattering (μg/m³),mass concentration of particles derived from Lorenz-Mie calculation of OPC scattering (μg/m³)
DateTimeUTC,F1_M11,P_M11,Q1_M11,Q2_M11,T1_M11,T2_M11,T3_M11,T4_M11,T5_M11,U1_M11,ZSPAN_M11,X0_M11,X2_M11,X1_M11
2023-12-31 14:00:00,SystemResetWarning,0830.2,4.99,000.00,020.9,019.6,000.0,029.3,022.1,12.5,0000.0,0010.63,0004.28,0003.75
2023-12-31 14:01:00,SystemResetWarning,0830.1,5.00,000.00,020.9,019.6,000.0,029.3,022.2,12.5,0000.0,0010.99,0004.27,0003.75
2023-12-31 14:02:00,SystemResetWarning,0830.1,5.00,000.00,020.8,019.6,000.0,029.3,022.1,12.6,0000.0,0011.37,0004.29,0003.75
2023-12-31 14:03:00,SystemResetWarning,0830.1,5.00,000.00,020.8,019.6,000.0,029.3,022.1,12.6,0000.0,0011.42,0004.30,0003.75
2023-12-31 14:04:00,SystemResetWarning,0830.1,5.00,000.00,020.8,019.6,000.0,029.3,022.1,12.6,0000.0,0011.57,0004.31,0003.75
2023-12-31 14:05:00,SystemResetWarning,0830.1,5.00,000.00,020.8,019.6,000.0,029.2,022.1,12.6,0000.0,0011.31,0004.31,0003.75
2023-12-31 14:06:00,SystemResetWarning,0830.1,5.00,000.00,020.8,019.5,000.0,029.2,022.1,12.5,0000.0,0011.55,0004.32,0003.74
2023-12-31 14:07:00,SystemResetWarning,0830.2,5.00,000.00,020.8,019.5,000.0,029.2,022.1,12.5,0000.0,0011.68,0004.34,0003.75
2023-12-31 14:08:00,SystemResetWarning,0830.2,5.00,000.00,020.8,019.5,000.0,029.2,022.1,12.6,0000.0,0012.19,0004.36,0003.76
2023-12-31 14:09:00,SystemResetWarning,0830.2,5.00,000.00,020.8,019.5,000.0,029.2,022.1,12.6,0000.0,0011.90,0004.37,0003.77
2023-12-31 14:10:00,SystemResetWarning,0830.2,5.00,000.00,020.8,019.5,000.0,029.2,022.1,12.6,0000.0,0011.04,0004.37,0003.78
2023-12-31 14:11:00,SystemResetWarning,0830.2,5.00,000.00,020.8,019.5,000.0,029.2,022.1,12.7,0000.0,0010.38,0004.34,0003.77
2023-12-31 14:12:00,SystemResetWarning,0830.1,4.99,000.00,020.8,019.5,000.0,029.2,022.1,12.7,0000.0,0010.05,0004.37,0003.77
2023-12-31 14:13:00,SystemResetWarning,0830.2,5.00,000.00,020.8,019.5,000.0,029.2,022.1,12.7,0000.0,0010.21,0004.37,0003.75
2023-12-31 14:14:00,SystemResetWarning,0830.2,5.00,000.00,020.7,019.6,000.0,029.2,022.1,12.7,0000.0,0010.21,0004.34,0003.75
2023-12-31 14:15:00,SystemResetWarning,0830.2,5.00,000.00,020.7,019.6,000.0,029.1,022.1,12.7,0000.0,0009.69,0004.30,0003.75
2023-12-31 14:16:00,SystemResetWarning,0830.1,5.01,000.00,020.7,019.6,000.0,029.1,022.1,12.7,0000.0,0010.13,0004.28,0003.73
2023-12-31 14:17:00,SystemResetWarning,0830.2,5.00,000.00,020.7,019.6,000.0,029.1,022.1,12.7,0000.0,0009.94,0004.23,0003.72
2023-12-31 14:18:00,SystemResetWarning,0830.1,5.00,000.00,020.7,019.6,000.0,029.1,022.1,12.7,0000.0,0010.01,0004.21,0003.70
2023-12-31 14:19:00,SystemResetWarning,0830.1,5.00,000.00,020.7,019.6,000.0,029.1,022.1,12.7,0000.0,0009.67,0004.22,0003.69
2023-12-31 14:20:00,SystemResetWarning,0830.1,5.00,000.00,020.7,019.6,000.0,029.1,022.1,12.7,0000.0,0009.40,0004.21,0003.68
2023-12-31 14:21:00,SystemResetWarning,0830.1,5.00,000.00,020.7,019.6,000.0,029.1,022.1,12.7,0000.0,0009.75,0004.17,0003.67
2023-12-31 14:22:00,SystemResetWarning,0830.1,5.00,000.00,020.7,019.6,000.0,029.1,022.1,12.7,0000.0,0010.21,0004.17,0003.66
2023-12-31 14:23:00,SystemResetWarning,0830.1,5.00,000.00,020.7,019.6,000.0,029.1,022.1,12.7,0000.0,0010.23,0004.19,0003.67
2023-12-31 14:24:00,SystemResetWarning,0830.1,5.00,000.00,020.7,019.6,000.0,029.1,022.0,12.7,0000.0,0009.52,0004.17,0003.66
2023-12-31 14:25:00,SystemResetWarning,0830.1,5.00,000.00,020.7,019.6,000.0,029.1,022.0,12.7,0000.0,0009.92,0004.17,0003.67
2023-12-31 14:26:00,SystemResetWarning,0830.1,5.00,000.00,020.7,019.6,000.0,029.1,022.0,12.7,0000.0,0009.85,0004.16,0003.66
2023-12-31 14:27:00,SystemResetWarning,0830.1,5.00,000.00,020.7,019.6,000.0,029.1,022.0,12.7,0000.0,0009.42,0004.17,0003.65
2023-12-31 14:28:00,SystemResetWarning,0830.1,5.00,000.00,020.7,019.5,000.0,029.1,022.0,12.7,0000.0,0009.29,0004.17,0003.65
2023-12-31 14:29:00,SystemResetWarning,0830.1,5.00,000.00,020.7,019.5,000.0,029.1,022.0,12.7,0000.0,0009.83,0004.18,0003.65
2023-12-31 14:30:00,SystemResetWarning,0830.1,5.00,000.00,020.7,019.5,000.0,029.0,022.0,12.6,0000.0,0009.67,0004.15,0003.65
2023-12-31 14:31:00,SystemResetWarning,0830.1,5.00,000.00,020.7,019.5,000.0,029.0,022.0,12.6,0000.0,0010.01,0004.15,0003.65
2023-12-31 14:32:00,SystemResetWarning,0830.1,5.00,000.00,020.6,019.5,000.0,029.0,022.0,12.7,0000.0,0010.23,0004.15,0003.64
2023-12-31 14:33:00,SystemResetWarning,0830.1,5.01,000.00,020.6,019.5,000.0,029.0,022.0,12.6,0000.0,0009.75,0004.15,0003.64
2023-12-31 14:34:00,SystemResetWarning,0830.2,5.01,000.00,020.6,019.5,000.0,029.0,022.0,12.7,0000.0,0009.61,0004.07,0003.61
2023-12-31 14:35:00,SystemResetWarning,0830.2,5.00,000.00,020.6,019.5,000.0,029.0,022.0,13.0,0000.0,0009.62,0004.00,0003.58
2023-12-31 14:36:00,SystemResetWarning,0830.2,5.00,000.00,020.6,019.5,000.0,029.0,022.0,13.2,0000.0,0008.99,0003.97,0003.54
2023-12-31 14:37:00,SystemResetWarning,0830.1,5.00,000.00,020.6,019.5,000.0,029.0,022.0,13.2,0000.0,0008.78,0003.94,0003.50
2023-12-31 14:38:00,SystemResetWarning,0830.1,5.00,000.00,020.6,019.6,000.0,029.0,022.0,13.3,0000.0,0008.91,0003.89,0003.47
2023-12-31 14:39:00,SystemResetWarning,0830.1,5.00,000.00,020.6,019.6,000.0,029.0,022.0,13.3,0000.0,0008.93,0003.85,0003.44
2023-12-31 14:40:00,SystemResetWarning,0830.1,5.00,000.00,020.6,019.6,000.0,029.0,022.0,13.3,0000.0,0008.70,0003.82,0003.41
2023-12-31 14:41:00,SystemResetWarning,0830.1,5.00,000.00,020.6,019.6,000.0,029.0,022.0,13.3,0000.0,0009.18,0003.79,0003.37
2023-12-31 14:42:00,SystemResetWarning,0830.2,5.00,000.00,020.6,019.7,000.0,029.0,022.0,13.3,0000.0,0009.45,0003.74,0003.34
2023-12-31 14:43:00,SystemResetWarning,0830.1,5.00,000.00,020.6,019.7,000.0,029.0,022.0,13.3,0000.0,0008.94,0003.72,0003.31
2023-12-31 14:44:00,SystemResetWarning,0830.2,5.00,000.00,020.6,019.7,000.0,029.0,022.0,13.3,0000.0,0008.71,0003.71,0003.28
2023-12-31 14:45:00,SystemResetWarning,0830.2,5.00,000.00,020.6,019.7,000.0,029.0,022.0,13.3,0000.0,0008.37,0003.66,0003.26
2023-12-31 14:46:00,SystemResetWarning,0830.2,5.00,000.00,020.6,019.7,000.0,029.0,022.0,13.2,0000.0,0008.31,0003.65,0003.25
2023-12-31 14:47:00,SystemResetWarning,0830.1,5.00,000.00,020.6,019.7,000.0,029.0,022.0,13.2,0000.0,0009.14,0003.63,0003.24
2023-12-31 14:48:00,SystemResetWarning,0830.1,5.00,000.00,020.6,019.7,000.0,029.0,022.0,13.1,0000.0,0009.33,0003.65,0003.24
2023-12-31 14:49:00,SystemResetWarning,0830.1,4.99,000.00,020.6,019.7,000.0,029.0,022.0,13.1,0000.0,0009.32,0003.66,0003.24
2023-12-31 14:50:00,SystemResetWarning,0830.1,4.99,000.00,020.6,019.7,000.0,029.0,022.0,13.0,0000.0,0009.80,0003.66,0003.25
2023-12-31 14:51:00,SystemResetWarning,0830.1,4.99,000.00,020.6,019.7,000.0,029.0,022.0,13.0,0000.0,0009.88,0003.68,0003.25
2023-12-31 14:52:00,SystemResetWarning,0830.1,5.00,000.00,020.6,019.7,000.0,029.0,022.0,13.0,0000.0,0009.09,0003.70,0003.26
2023-12-31 14:53:00,SystemResetWarning,0830.1,5.00,000.00,020.6,019.7,000.0,029.0,022.0,13.0,0000.0,0009.29,0003.71,0003.25
2023-12-31 14:54:00,SystemResetWarning,0830.1,5.00,000.00,020.6,019.7,000.0,029.0,022.0,13.1,0000.0,0009.39,0003.68,0003.24
2023-12-31 14:55:00,SystemResetWarning,0830.1,5.00,000.00,020.6,019.7,000.0,029.0,022.0,13.1,0000.0,0009.38,0003.65,0003.23
2023-12-31 14:56:00,SystemResetWarning,0830.1,5.00,000.00,020.6,019.7,000.0,029.0,022.0,13.1,0000.0,0009.47,0003.67,0003.24
2023-12-31 14:57:00,SystemResetWarning,0830.2,5.00,000.00,020.6,019.7,000.0,029.0,022.0,13.1,0000.0,0009.42,0003.67,0003.23
2023-12-31 14:58:00,SystemResetWarning,0830.2,5.00,000.00,020.6,019.7,000.0,029.0,022.0,13.1,0000.0,0008.53,0003.69,0003.23
2023-12-31 14:59:00,SystemResetWarning,0830.2,5.00,000.00,020.6,019.7,000.0,028.9,022.0,13.1,0000.0,0008.81,0003.71,0003.22
